YO4CIL-MG Weather Reports


time (UTC)temp
C
wind
direction
speed
KPH
gust
KPH
rain 1hr
cm
rain 24hr
cm
rain mn
cm
humidity
%
barometer
mb
20260504050523 8 0.0 0.0 0.00 0.00 0.00 61 1015.9
20260504045523 7 0.0 0.0 0.00 0.00 0.00 62 1015.8
20260504044523 7 0.0 0.0 0.00 0.00 0.00 62 1015.7
20260504043523 7 0.0 0.0 0.00 0.00 0.00 63 1015.8
20260504042523 7 0.0 0.0 0.00 0.00 0.00 63 1015.7
20260504041523 7 0.0 0.0 0.00 0.00 0.00 63 1015.6
20260504040523 7 0.0 0.0 0.00 0.00 0.00 63 1015.5
20260504035523 6 0.0 0.0 0.00 0.00 0.00 62 1015.5
20260504034523 6 0.0 0.0 0.00 0.00 0.00 62 1015.5
20260504033523 6 0.0 0.0 0.00 0.00 0.00 63 1015.4
20260504032523 6 0.0 0.0 0.00 0.00 0.00 63 1015.4
20260504031523 6 0.0 0.0 0.00 0.00 0.00 62 1015.2
20260504030523 6 0.0 0.0 0.00 0.00 0.00 62 1015.2
20260504025523 6 0.0 0.0 0.00 0.00 0.00 62 1015.2
20260504024523 6 0.0 0.0 0.00 0.00 0.00 63 1015.3
20260504023523 6 0.0 0.0 0.00 0.00 0.00 64 1015.2
20260504022522 6 0.0 0.0 0.00 0.00 0.00 64 1015.3
20260504021523 6 0.0 0.0 0.00 0.00 0.00 65 1015.5
20260504020522 6 0.0 0.0 0.00 0.00 0.00 65 1015.6
20260504015522 6 0.0 0.0 0.00 0.00 0.00 65 1015.6
20260504014523 6 0.0 0.0 0.00 0.00 0.00 66 1015.7
20260504013522 6 0.0 0.0 0.00 0.00 0.00 65 1015.8
20260504012522 6 0.0 0.0 0.00 0.00 0.00 65 1015.9
20260504011522 6 0.0 0.0 0.00 0.00 0.00 64 1016.1
20260504010523 6 0.0 0.0 0.00 0.00 0.00 63 1016.2
20260504005522 6 0.0 0.0 0.00 0.00 0.00 63 1016.2
20260504004522 6 0.0 0.0 0.00 0.00 0.00 61 1016.4
20260504003522 6 0.0 0.0 0.00 0.00 0.00 61 1016.6
20260504002522 6 0.0 0.0 0.00 0.00 0.00 61 1016.7
20260504001522 6 0.0 0.0 0.00 0.00 0.00 61 1016.7
20260504000522 6 0.0 0.0 0.00 0.00 0.00 61 1016.8
20260503235522 6 0.0 0.0 0.00 0.00 0.00 61 1016.8
20260503234522 6 0.0 0.0 0.00 0.00 0.00 60 1016.8
20260503233522 6 0.0 0.0 0.00 0.00 0.00 59 1016.8
20260503232523 6 0.0 0.0 0.00 0.00 0.00 59 1016.9
20260503231523 6 0.0 0.0 0.00 0.00 0.00 59 1017.0
20260503230523 6 0.0 0.0 0.00 0.00 0.00 59 1017.0
20260503225522 6 0.0 0.0 0.00 0.00 0.00 60 1017.1
20260503224522 6 0.0 0.0 0.00 0.00 0.00 60 1017.3
20260503223522 6 0.0 0.0 0.00 0.00 0.00 61 1017.3
20260503222522 6 0.0 0.0 0.00 0.00 0.00 61 1017.5
20260503221522 6 0.0 0.0 0.00 0.00 0.00 61 1017.4
20260503220522 6 0.0 0.0 0.00 0.00 0.00 61 1017.4
20260503215523 6 0.0 0.0 0.00 0.00 0.00 61 1017.4
20260503214522 6 0.0 0.0 0.00 0.00 0.00 61 1017.4
20260503213522 7 0.0 0.0 0.00 0.00 0.00 59 1017.4
20260503212522 6 0.0 0.0 0.00 0.00 0.00 61 1017.3
20260503211522 6 0.0 0.0 0.00 0.00 0.00 61 1017.4
20260503210522 7 0.0 0.0 0.00 0.00 0.00 61 1017.4
20260503205522 7 0.0 0.0 0.00 0.00 0.00 61 1017.4
20260503204522 7 0.0 0.0 0.00 0.00 0.00 61 1017.5
20260503203522 7 0.0 0.0 0.00 0.00 0.00 62 1017.6
20260503202522 7 0.0 0.0 0.00 0.00 0.00 62 1017.8
20260503201522 7 0.0 0.0 0.00 0.00 0.00 62 1018.0
20260503200522 7 0.0 0.0 0.00 0.00 0.00 61 1018.0
20260503195522 7 0.0 0.0 0.00 0.00 0.00 61 1018.1
20260503194522 7 0.0 0.0 0.00 0.00 0.00 61 1018.1
20260503193522 7 0.0 0.0 0.00 0.00 0.00 60 1018.3
20260503192522 7 0.0 0.0 0.00 0.00 0.00 61 1018.3
20260503191522 7 0.0 0.0 0.00 0.00 0.00 60 1018.4
20260503190522 7 0.0 0.0 0.00 0.00 0.00 60 1018.5
20260503185522 8 0.0 0.0 0.00 0.00 0.00 59 1018.7
20260503184522 8 0.0 0.0 0.00 0.00 0.00 58 1018.8
20260503182522 10 0.0 0.0 0.00 0.00 0.00 55 1019.0
20260503181522 10 0.0 0.0 0.00 0.00 0.00 55 1018.9
20260503180522 10 0.0 0.0 0.00 0.00 0.00 56 1018.9
20260503175522 10 0.0 0.0 0.00 0.00 0.00 54 1019.0
20260503174522 11 0.0 0.0 0.00 0.00 0.00 54 1019.0
20260503173522 11 0.0 0.0 0.00 0.00 0.00 52 1019.0
20260503172522 11 0.0 0.0 0.00 0.00 0.00 51 1019.1
20260503171522 11 0.0 0.0 0.00 0.00 0.00 49 1019.2
20260503170522 11 0.0 0.0 0.00 0.00 0.00 49 1019.1
20260503150523 13 0.0 0.0 0.00 0.00 0.00 47 1019.6
20260503130522 13 0.0 0.0 0.00 0.00 0.00 51 1020.2
20260503110524 13 0.0 0.0 0.00 0.00 0.00 51 1021.6
20260503081522 12 0.0 0.0 0.00 0.00 0.00 57 1022.0
20260503080522 12 0.0 0.0 0.00 0.00 0.00 59 1022.0
20260503072522 12 0.0 0.0 0.00 0.00 0.00 68 1021.7
20260503071522 11 0.0 0.0 0.00 0.00 0.00 67 1021.8
20260503070522 11 0.0 0.0 0.00 0.00 0.00 67 1021.8
20260503054522 10 0.0 0.0 0.00 0.00 0.00 61 1021.2
20260503053522 10 0.0 0.0 0.00 0.00 0.00 71 1021.3
20260503052521 9 0.0 0.0 0.00 0.00 0.00 73 1021.2